Location: Squamish
(49.7000°N, 123.1500°W)
Time: 15:33:09
(UTC-07:00)

Daily predictions for brighter satellites

Satellite Brightness Start Highest point End
(mag) Time Altitude Azimuth Time Altitude Azimuth Time Altitude Azimuth
ATLAS 2AS CENTAUR R/B 3.9 20:47:53 10° NW 20:55:25 48° WSW 21:02:24 10° S
NOSS 0 Rocket 3.9 20:50:23 10° SSW 20:56:31 70° ESE 21:02:43 10° NE
Resurs 01 Rocket 1.7 20:53:23 10° SSE 20:57:50 86° ENE 21:02:18 10° NNW
Cosmos 1151 Rocket 3.0 20:54:16 10° S 20:58:28 61° E 21:02:44 10° NNE
Cosmos 2098 Rocket 3.6 20:55:47 10° SSE 20:59:23 29° E 21:02:25 10° NNE
SJ-11-01 4.3 20:57:00 10° SSE 21:01:40 81° ENE 21:06:23 10° NNW
Cosmos 1933 Rocket 3.6 20:59:49 10° N 21:04:14 86° W 21:08:35 10° S
Spot 2 Rocket 3.5 21:00:08 10° SSE 21:05:14 80° ENE 21:10:20 10° NNW
Thor Agena Rocket 3.6 21:00:53 10° NNE 21:06:10 85° ESE 21:11:28 10° SSW
SL-8 R/B 4.0 21:02:25 10° SW 21:07:01 48° SSE 21:11:39 10° E
Cosmos 1455 2.8 21:03:15 10° SSW 21:07:04 61° WNW 21:10:56 10° N
Cosmos 1727 Rocket 4.1 21:05:01 10° N 21:11:07 58° ENE 21:17:11 10° SSE
Cosmos 1980 3.7 21:06:52 10° SSW 21:12:33 82° ESE 21:18:16 10° NNE
Cosmos 1869 3.4 21:11:44 10° S 21:15:41 58° E 21:19:39 10° NNE
Cosmos 1441 Rocket 4.2 21:12:45 10° SSE 21:15:54 26° E 21:19:05 10° NE
Cosmos 2297 3.7 21:11:44 10° NNW 21:17:27 82° ENE 21:23:10 10° SSE
Cosmos 2369 Rocket 3.6 21:12:49 10° NNW 21:17:35 26° NE 21:22:18 10° E
Terra 3.9 21:19:45 10° E 21:22:10 14° NE 21:24:36 10° NNE
Cosmos 614 Rocket 4.3 21:17:40 10° NNW 21:22:49 54° ENE 21:27:21 13° SE
Resurs 1-3 4.4 21:19:12 10° S 21:23:29 52° W 21:27:47 10° NNW
USA 186 3.7 21:22:08 10° SW 21:23:55 19° W 21:25:46 10° NW
ATLAS CENTAUR R/B 2.2 21:20:49 10° WSW 21:24:26 49° NW 21:28:19 10° NNE
NOSS 3-4 (A) 4.0 21:19:31 10° NW 21:26:28 75° SW 21:33:43 11° SSE
NOSS 3-4 (C) 4.0 21:19:37 10° NW 21:26:34 76° SW 21:33:48 11° SSE
Cosmos 1869 Rocket 3.7 21:23:00 10° N 21:27:19 55° ENE 21:31:17 12° SSE
Cosmos 1939 Rocket 4.2 21:23:48 10° SSW 21:27:28 39° W 21:31:12 10° NNW
CZ-4B DEB 4.4 21:26:35 10° SSE 21:30:05 85° ENE 21:33:37 10° NNW
Cosmos 2333 Rocket 3.1 21:25:12 10° SW 21:30:43 53° NW 21:36:17 10° NNE
Cosmos 2344 4.2 21:25:00 10° S 21:31:34 33° ESE 21:38:43 10° NE
Cosmos 2219 Rocket 3.5 21:27:02 10° SW 21:32:27 46° NW 21:37:54 10° NNE
ERS-1 Rocket 3.4 21:29:53 14° SE 21:33:58 45° ENE 21:38:46 10° N
Cosmos 2218 Rocket 4.1 21:27:45 10° S 21:34:08 87° E 21:40:36 10° N
ATLAS 5 CENTAUR R/B 3.1 21:29:42 10° NW 21:35:01 41° NE 21:40:22 12° ESE
Cosmos 1733 Rocket 4.4 21:31:47 10° NNE 21:35:20 23° ENE 21:37:39 16° ESE
SL-08 RB Rocket 4.0 21:31:59 14° SE 21:35:33 48° ENE 21:39:52 10° N
BREEZE-M DEB (TANK) 1.5 21:33:19 10° W 21:35:45 87° SSE 21:37:28 16° E
Cosmos 2237 Rocket 2.5 21:33:27 10° SW 21:39:03 72° WNW 21:44:44 10° NNE
Cosmos 407 Rocket 3.8 21:34:24 10° NNW 21:39:31 66° WSW 21:44:35 10° S
Cosmos 2366 rocket 4.0 21:34:53 10° S 21:41:08 88° E 21:47:30 10° N
Cosmos 1825 3.8 21:40:28 10° NNW 21:43:56 34° W 21:47:22 10° SSW
Cosmos 2278 Rocket 3.9 21:40:11 10° NW 21:44:58 29° WSW 21:49:45 10° SSW
BREEZE-M DEB (TANK) 2.2 21:39:14 10° W 21:45:36 89° SSE 21:47:21 19° E
SL-8 Rocket 4.5 21:42:13 10° SSW 21:48:28 65° WNW 21:54:43 10° N
Cosmos 405 Rocket 2.8 21:45:42 10° S 21:49:28 57° E 21:53:23 10° NNE
Lacrosse 5 2.2 21:45:09 10° NW 21:50:11 61° NNE 21:53:59 17° ESE
SPOT 5 3.2 21:54:00 22° SE 21:56:31 42° ENE 22:00:39 10° N
Cosmos 1437 Rocket 3.4 21:54:06 10° N 21:57:47 39° ENE 21:59:27 26° ESE
USA 81 4.1 21:53:08 10° N 21:58:27 80° W 22:03:41 10° S
Cosmos 1371 Rocket 4.5 21:54:22 10° SW 21:59:40 66° WNW 22:05:03 10° NNE
SPOT 1/Viking Rocket 4.0 21:57:25 21° SE 22:00:37 48° ENE 22:05:38 10° N
Cosmos 676 Rocket 4.3 21:58:21 10° NNW 22:03:34 66° WSW 22:07:35 17° S
Cosmos 1862 3.8 22:01:09 10° NNW 22:05:09 61° W 22:08:24 15° S
H-2A R/B 1.9 22:04:33 18° SSE 22:08:18 87° WSW 22:13:17 10° NNW
USA 234 3.9 22:06:28 10° E 22:12:46 52° NNE 22:19:03 10° WNW
MetOp-B 4.3 22:10:39 16° S 22:14:57 71° WSW 22:20:19 10° NNW
RESURS DK-1 3.1 22:12:17 10° NNW 22:16:17 41° NE 22:17:54 28° ESE
Helios 1B rocket 3.2 22:13:12 10° NNE 22:16:58 33° E 22:17:38 31° ESE
Cosmos 1943 Rocket 2.8 22:13:25 10° NNW 22:18:43 44° NE 22:21:35 25° ESE
Cosmos 2242 Rocket 4.1 22:17:35 31° SE 22:18:49 38° E 22:22:56 10° NNE
Meteor 2-10 Rocket 4.4 22:13:11 10° SSW 22:18:52 58° WNW 22:24:38 10° N
ARGOS 3.6 22:14:36 14° S 22:19:11 59° W 22:24:31 10° NNW
USA 245 2.0 22:19:52 77° W 22:19:52 77° W 22:22:05 10° NNW
CZ-4C R/B 2.4 22:15:32 10° S 22:20:29 44° ESE 22:26:10 10° NE
Cosmos 2056 Rocket 4.3 22:15:30 10° SW 22:20:49 56° WNW 22:26:08 10° NNE
Cosmos 1452 Rocket 3.4 22:16:06 10° SSW 22:21:18 69° ESE 22:26:32 10° NNE
Cosmos 1140 Rocket 4.1 22:20:03 10° NNW 22:25:04 52° WSW 22:28:28 20° S
Cosmos 1934 Rocket 4.0 22:25:38 25° SSE 22:29:01 56° E 22:34:56 10° NNE
SL-16 R/B 2.5 22:26:03 10° SW 22:31:42 67° WNW 22:37:22 10° NNE
Cosmos 1908 Rocket 4.4 22:27:48 10° N 22:31:56 36° ENE 22:32:57 32° ESE
Intercosmos 24 4.4 22:28:12 20° S 22:32:07 69° E 22:36:19 10° NNE
Cosmos 1850 Rocket 3.9 22:29:39 10° NNW 22:34:52 86° WSW 22:37:13 34° SSE
Resurs 01 Rocket 4.4 22:33:10 10° WSW 22:34:57 12° W 22:36:45 10° WNW
Cosmos 921 Rocket 3.4 22:35:24 40° ESE 22:35:52 42° ESE 22:39:57 10° NNE
Cosmos 1862 Rocket 3.7 22:38:10 43° SE 22:39:14 55° E 22:43:32 10° NNE
Landsat 7 3.7 22:39:26 38° SSE 22:41:18 81° ENE 22:46:06 10° NNW
Cosmos 1741 Rocket 4.1 22:39:15 10° NNW 22:44:36 76° WSW 22:46:53 35° S
Cosmos 1606 3.2 22:48:29 42° E 22:48:29 42° E 22:52:04 10° NNE
SL-8 R/B 3.6 22:44:34 10° W 22:49:22 78° S 22:51:21 36° E
Gblst 52 Del rocket 4.2 22:45:34 10° SW 22:50:50 48° SSE 22:56:10 10° ENE
Helios 1A 3.7 22:50:29 29° SSW 22:52:13 46° W 22:56:17 10° NNW
Cosmos 1461 3.5 22:50:02 10° NW 22:54:48 58° NE 22:56:11 41° ESE
Cosmos 1603 3.5 22:55:26 23° SSW 22:59:03 76° ESE 23:04:41 10° NNE
BREEZE M DEB (TANK) 3.6 22:45:07 10° W 22:59:05 89° S 23:01:41 27° E
Terra 1.7 22:57:51 48° SSE 22:59:10 82° ENE 23:03:58 10° NNW
Cosmos 1943 3.4 22:58:26 42° SE 22:59:32 47° ESE 23:04:58 10° NE
Meteor 1-29 3.0 22:56:09 10° NNE 22:59:11 63° NE 22:59:11 63° NE
Cosmos 1821 Rocket 4.3 22:55:35 15° SSW 23:00:58 68° WNW 23:07:14 10° N
Cosmos 2369 Rocket 2.2 22:56:30 10° NNW 23:02:12 75° WSW 23:04:12 41° S
Cosmos 1633 2.7 22:59:19 10° NNW 23:02:52 63° W 23:03:07 60° WSW
CZ-2C R/B 3.4 23:01:36 10° NNE 23:06:28 33° E 23:06:44 33° E
IGS 5A 3.5 23:09:29 57° SSW 23:10:10 70° WSW 23:14:21 10° NNW
Cosmos 2263 4.1 23:04:45 10° NNW 23:10:24 85° WSW 23:12:03 48° SSE
Meteor 1-4 Rocket 3.0 23:07:11 10° NNW 23:10:34 51° W 23:10:38 50° WSW
Cosmos 1782 2.9 23:11:02 61° ENE 23:11:02 61° ENE 23:14:45 10° NNE
Meteor 1-11 Rocket 4.2 23:06:44 10° N 23:12:08 45° ENE 23:13:27 38° ESE
Cosmos 1733 Rocket 4.0 23:09:12 10° NNW 23:13:19 41° W 23:14:44 31° SW
Cosmos 2123 Rocket 4.3 23:08:58 10° NNW 23:15:12 63° W 23:18:14 31° SSW
Spot 4 4.1 23:15:21 46° E 23:16:05 51° ENE 23:20:44 10° N
CARTOSAT-1 3.8 23:16:13 51° SSW 23:17:00 61° W 23:21:18 10° NNW
USA 267 3.4 23:13:07 10° ENE 23:19:22 46° SE 23:20:46 41° SSE
Cosmos 389 Rocket 2.9 23:16:22 10° N 23:19:16 58° N 23:19:16 58° N
ATLAS 5 CENTAUR R/B 2.5 23:14:17 10° NW 23:20:03 62° SW 23:21:55 44° S
Meteor 1-27 Rocket 4.4 23:22:47 38° ESE 23:23:22 39° E 23:28:40 10° NNE
Cosmos 1331 Rocket 4.1 23:23:13 53° ESE 23:23:31 54° ESE 23:28:39 10° NNE
Cosmos 1602 3.8 23:20:39 10° N 23:24:22 69° NE 23:24:22 69° NE
Cosmos 1536 4.2 23:21:13 10° N 23:24:23 28° ENE 23:24:23 28° ENE
Cosmos 1271 Rocket 3.8 23:21:04 10° N 23:24:26 36° ENE 23:24:26 36° ENE
GEOS 3 Rocket 3.5 23:22:08 10° NE 23:27:34 81° SE 23:30:13 31° SW
Lacrosse 5 2.5 23:28:19 10° WNW 23:33:03 40° SW 23:33:10 40° SW
YAOGAN 11 4.5 23:32:56 49° WSW 23:33:22 51° W 23:37:37 10° NNW
Sich 1 Rocket 3.5 23:29:16 10° NNW 23:33:53 80° W 23:34:16 73° SSW
Okean 1-7 3.3 23:34:49 53° ENE 23:34:49 53° ENE 23:38:31 10° NNE
SPOT 5 4.4 23:33:13 20° SW 23:34:46 24° W 23:38:23 10° NW
CZ-2C R/B 2.8 23:36:39 62° SSW 23:37:17 72° WSW 23:42:11 10° NNW
Cosmos 1782 Rocket 3.5 23:34:17 10° N 23:38:47 86° W 23:38:55 84° SSW
Cosmos 1486 Rocket 4.0 23:34:41 10° NNW 23:39:58 73° ENE 23:40:43 62° ESE
Cosmos 1900 4.5 23:35:20 10° NNW 23:40:13 61° NE 23:40:52 55° E
Cosmos 2173 Rocket 4.2 23:41:15 49° SE 23:42:22 55° E 23:48:33 10° NNE
Okean 2 Rocket 3.1 23:40:13 10° N 23:44:28 66° ENE 23:44:28 66° ENE
Cosmos 2344 4.0 23:37:38 10° WSW 23:45:15 68° NW 23:54:20 10° NE
H-2A R/B 4.4 23:46:12 10° WSW 23:48:28 13° W 23:50:43 10° WNW
SAR-Lupe-4 4.5 23:50:09 46° NW 23:50:09 46° NW 23:52:56 10° NNW
Cosmos 1605 Rocket 4.5 23:48:30 30° SW 23:51:37 58° WNW 23:57:58 10° N
Helios 1B rocket 4.2 23:48:39 10° N 23:52:11 28° WNW 23:54:00 20° WSW
Cosmos 1110 Rocket 4.0 23:51:57 57° SW 23:53:04 82° WNW 23:58:25 10° NNE
Cosmos 1503 Rocket 4.3 23:48:20 10° NNW 23:53:27 53° ENE 23:54:07 50° E
RESURS DK-1 4.0 23:50:43 10° NW 23:53:48 25° W 23:53:48 25° W
